• în România
  • Lista ţărilor
  • Pe 7 zile
  • Temperatura apei
  • Hartă satelitară
  • Meteo pe hartă
  • Widget-uri
  • user-avatar
    Intrare

    Meteo pe oră la Liege

    Astăzi, 18 Februarie, Duminică

    Timp Temperatura Precipitaţii Vânt Presiune Umiditate
    00:00 +1°C° 0 mm 1 m/s 759 mmHg 83%
    01:00 0°C° 0 mm 1 m/s 760 mmHg 83%
    02:00 0°C° 0 mm 1 m/s 760 mmHg 83%
    03:00 0°C° 0 mm 1 m/s 760 mmHg 83%
    04:00 -2°C° 0 mm 2 m/s 760 mmHg 83%
    05:00 -2°C° 0 mm 2 m/s 760 mmHg 83%
    06:00 -2°C° 0 mm 2 m/s 760 mmHg 83%
    07:00 -1°C° 0 mm 2 m/s 760 mmHg 78%
    08:00 +1°C° 0 mm 2 m/s 760 mmHg 74%
    09:00 +3°C° 0 mm 2 m/s 760 mmHg 69%
    10:00 +4°C° 0 mm 2 m/s 760 mmHg 65%
    11:00 +5°C° 0 mm 2 m/s 760 mmHg 61%
    12:00 +7°C° 0 mm 2 m/s 760 mmHg 57%
    13:00 +8°C° 0 mm 1 m/s 760 mmHg 57%
    14:00 +8°C° 0 mm 1 m/s 759 mmHg 57%
    15:00 +8°C° 0 mm 1 m/s 759 mmHg 57%
    16:00 +6°C° 0 mm 1 m/s 759 mmHg 64%
    17:00 +4°C° 0 mm 1 m/s 759 mmHg 70%
    18:00 +3°C° 0 mm 1 m/s 759 mmHg 77%
    19:00 +2°C° 0 mm 1 m/s 759 mmHg 78%
    20:00 +1°C° 0 mm 2 m/s 759 mmHg 79%
    21:00 -1°C° 0 mm 2 m/s 759 mmHg 80%
    22:00 -1°C° 0 mm 2 m/s 759 mmHg 80%
    23:00 -1°C° 0 mm 2 m/s 758 mmHg 80%

    Mâine, 19 Februarie, Luni

    Timp Temperatura Precipitaţii Vânt Presiune Umiditate
    00:00 -1°C° 0 mm 2 m/s 758 mmHg 80%
    01:00 -1°C° 0 mm 2 m/s 758 mmHg 81%
    02:00 -1°C° 0 mm 2 m/s 758 mmHg 81%
    03:00 +1°C° 0 mm 1 m/s 757 mmHg 81%
    04:00 +1°C° 0 mm 1 m/s 757 mmHg 80%
    05:00 +1°C° 0 mm 1 m/s 757 mmHg 79%
    06:00 +1°C° 0 mm 1 m/s 757 mmHg 79%
    07:00 +2°C° 0 mm 1 m/s 757 mmHg 74%
    08:00 +2°C° 0 mm 2 m/s 757 mmHg 70%
    09:00 +3°C° 0 mm 2 m/s 757 mmHg 65%
    10:00 +4°C° 0 mm 2 m/s 757 mmHg 61%
    11:00 +7°C° 0 mm 1 m/s 756 mmHg 56%
    12:00 +8°C° 0 mm 1 m/s 756 mmHg 51%
    13:00 +8°C° 0 mm 1 m/s 756 mmHg 52%
    14:00 +8°C° 0 mm 1 m/s 755 mmHg 53%
    15:00 +8°C° 0 mm 1 m/s 755 mmHg 54%
    16:00 +7°C° 0 mm 1 m/s 755 mmHg 59%
    17:00 +6°C° 0 mm 1 m/s 755 mmHg 65%
    18:00 +5°C° 0 mm 1 m/s 754 mmHg 71%
    19:00 +3°C° 0,3 mm 2 m/s 754 mmHg 73%
    20:00 +3°C° 0,3 mm 2 m/s 754 mmHg 76%
    21:00 +3°C° 0,3 mm 2 m/s 754 mmHg 78%
    22:00 +2°C° 0,7 mm 3 m/s 753 mmHg 79%
    23:00 +2°C° 0,7 mm 3 m/s 753 mmHg 80%

    Poimâine, 20 Februarie, Marţi

    Timp Temperatura Precipitaţii Vânt Presiune Umiditate
    00:00 +1°C° 0,7 mm 4 m/s 752 mmHg 81%
    01:00 +1°C° 0,8 mm 4 m/s 751 mmHg 83%
    02:00 +1°C° 0,8 mm 4 m/s 751 mmHg 86%
    03:00 0°C° 0,8 mm 4 m/s 750 mmHg 88%
    04:00 +1°C° 0,3 mm 3 m/s 750 mmHg 90%
    05:00 +1°C° 0,3 mm 3 m/s 750 mmHg 92%
    06:00 +2°C° 0,3 mm 2 m/s 750 mmHg 94%
    07:00 +2°C° 0,1 mm 2 m/s 750 mmHg 94%
    08:00 +3°C° 0,1 mm 2 m/s 750 mmHg 93%
    09:00 +4°C° 0,1 mm 1 m/s 750 mmHg 93%
    10:00 +3°C° 0,1 mm 2 m/s 750 mmHg 92%
    11:00 +3°C° 0,1 mm 3 m/s 751 mmHg 92%
    12:00 +3°C° 0,1 mm 3 m/s 751 mmHg 91%
    13:00 +3°C° 0,1 mm 4 m/s 751 mmHg 90%
    14:00 +3°C° 0,1 mm 4 m/s 751 mmHg 90%
    15:00 +3°C° 0,1 mm 4 m/s 752 mmHg 89%
    16:00 +1°C° 0 mm 4 m/s 752 mmHg 89%
    17:00 +1°C° 0 mm 4 m/s 753 mmHg 90%
    18:00 +1°C° 0 mm 4 m/s 753 mmHg 90%
    19:00 0°C° 0 mm 4 m/s 754 mmHg 91%
    20:00 0°C° 0 mm 4 m/s 755 mmHg 91%
    21:00 +1°C° 0 mm 3 m/s 755 mmHg 92%
    22:00 0°C° 0 mm 3 m/s 756 mmHg 92%
    23:00 -1°C° 0 mm 3 m/s 756 mmHg 93%

    21 Februarie, Miercuri

    Timp Temperatura Precipitaţii Vânt Presiune Umiditate
    00:00 -2°C° 0 mm 3 m/s 756 mmHg 94%
    01:00 -2°C° 0 mm 3 m/s 756 mmHg 94%
    02:00 -2°C° 0 mm 3 m/s 756 mmHg 94%
    03:00 -3°C° 0 mm 2 m/s 756 mmHg 94%
    04:00 -3°C° 0 mm 2 m/s 756 mmHg 94%
    05:00 -3°C° 0 mm 2 m/s 756 mmHg 95%
    06:00 -3°C° 0 mm 2 m/s 757 mmHg 95%
    07:00 -2°C° 0 mm 3 m/s 757 mmHg 91%
    08:00 -2°C° 0 mm 3 m/s 757 mmHg 87%
    09:00 -1°C° 0 mm 3 m/s 757 mmHg 84%
    10:00 -1°C° 0 mm 4 m/s 757 mmHg 79%
    11:00 0°C° 0 mm 4 m/s 756 mmHg 74%
    12:00 +1°C° 0 mm 4 m/s 756 mmHg 70%
    13:00 +1°C° 0 mm 5 m/s 756 mmHg 70%
    14:00 +1°C° 0 mm 5 m/s 756 mmHg 70%
    15:00 +1°C° 0 mm 5 m/s 756 mmHg 69%
    16:00 0°C° 0 mm 5 m/s 756 mmHg 75%
    17:00 -1°C° 0 mm 5 m/s 756 mmHg 80%
    18:00 -3°C° 0 mm 4 m/s 756 mmHg 85%
    19:00 -3°C° 0 mm 4 m/s 756 mmHg 84%
    20:00 -4°C° 0 mm 5 m/s 757 mmHg 82%
    21:00 -4°C° 0 mm 5 m/s 757 mmHg 81%
    22:00 -4°C° 0 mm 5 m/s 757 mmHg 80%
    23:00 -3°C° 0 mm 4 m/s 757 mmHg 79%

    22 Februarie, Joi

    Timp Temperatura Precipitaţii Vânt Presiune Umiditate
    00:00 -3°C° 0 mm 4 m/s 757 mmHg 78%
    01:00 -4°C° 0 mm 4 m/s 757 mmHg 80%
    02:00 -4°C° 0 mm 4 m/s 757 mmHg 81%
    03:00 -5°C° 0 mm 4 m/s 756 mmHg 83%
    04:00 -5°C° 0 mm 4 m/s 756 mmHg 82%
    05:00 -5°C° 0 mm 4 m/s 756 mmHg 82%
    06:00 -5°C° 0 mm 4 m/s 756 mmHg 82%
    07:00 -6°C° 0 mm 5 m/s 756 mmHg 77%
    08:00 -5°C° 0 mm 5 m/s 757 mmHg 73%
    09:00 -4°C° 0 mm 6 m/s 757 mmHg 68%
    10:00 -3°C° 0 mm 6 m/s 756 mmHg 64%
    11:00 -2°C° 0 mm 6 m/s 756 mmHg 60%
    12:00 -2°C° 0 mm 6 m/s 756 mmHg 56%
    13:00 -1°C° 0 mm 6 m/s 755 mmHg 56%
    14:00 -1°C° 0 mm 6 m/s 755 mmHg 56%
    15:00 -1°C° 0 mm 6 m/s 755 mmHg 56%
    16:00 -1°C° 0 mm 5 m/s 755 mmHg 62%
    17:00 -4°C° 0 mm 5 m/s 755 mmHg 68%
    18:00 -4°C° 0 mm 4 m/s 756 mmHg 73%
    19:00 -4°C° 0 mm 4 m/s 756 mmHg 74%
    20:00 -4°C° 0 mm 4 m/s 756 mmHg 75%
    21:00 -5°C° 0 mm 4 m/s 757 mmHg 76%
    22:00 -5°C° 0 mm 4 m/s 757 mmHg 76%
    23:00 -5°C° 0 mm 4 m/s 757 mmHg 76%

    23 Februarie, Vineri

    Timp Temperatura Precipitaţii Vânt Presiune Umiditate
    00:00 -5°C° 0 mm 3 m/s 757 mmHg 76%
    01:00 -5°C° 0 mm 3 m/s 757 mmHg 75%
    02:00 -5°C° 0 mm 3 m/s 757 mmHg 75%
    03:00 -6°C° 0 mm 3 m/s 756 mmHg 75%
    04:00 -7°C° 0 mm 4 m/s 757 mmHg 75%
    05:00 -7°C° 0 mm 4 m/s 757 mmHg 75%
    06:00 -7°C° 0 mm 4 m/s 757 mmHg 75%
    07:00 -5°C° 0 mm 4 m/s 757 mmHg 70%
    08:00 -5°C° 0 mm 5 m/s 757 mmHg 66%
    09:00 -4°C° 0 mm 5 m/s 758 mmHg 61%
    10:00 -2°C° 0 mm 5 m/s 758 mmHg 57%
    11:00 -2°C° 0 mm 5 m/s 758 mmHg 54%
    12:00 -1°C° 0 mm 5 m/s 757 mmHg 50%
    13:00 0°C° 0 mm 5 m/s 757 mmHg 50%
    14:00 0°C° 0 mm 5 m/s 757 mmHg 50%
    15:00 0°C° 0 mm 5 m/s 757 mmHg 50%
    16:00 -2°C° 0 mm 5 m/s 757 mmHg 56%
    17:00 -3°C° 0 mm 4 m/s 757 mmHg 61%
    18:00 -4°C° 0 mm 4 m/s 758 mmHg 66%
    19:00 -4°C° 0 mm 4 m/s 758 mmHg 67%
    20:00 -4°C° 0 mm 4 m/s 758 mmHg 68%
    21:00 -5°C° 0 mm 4 m/s 758 mmHg 69%
    22:00 -5°C° 0 mm 4 m/s 758 mmHg 69%
    23:00 -5°C° 0 mm 4 m/s 758 mmHg 68%
    Arată mai mult